Location: Appennino Toscano
(44.0000°N, 11.5000°E)
Time: 17:53:18
(UTC+00:00)

Daily predictions for brighter satellites

Satellite Brightness Start Highest point End
(mag) Time Altitude Azimuth Time Altitude Azimuth Time Altitude Azimuth
DMSP B5D2-2 4.3 19:28:47 10° N 19:34:01 78° WNW 19:39:13 10° SSW
H-2A ROCKET BODY 4.1 19:31:15 10° SSW 19:35:07 21° SSE 19:44:31 10° ESE
Meteor 2-10 Rocket 3.8 19:31:20 10° N 19:36:21 53° ENE 19:41:29 10° SSE
Cosmos 1758 Rocket 4.5 19:32:34 10° SSE 19:36:31 31° E 19:40:30 10° NNE
Cosmos 1626 Rocket 3.6 19:33:36 10° S 19:38:03 88° E 19:42:33 10° N
Cosmos 1400 Rocket 4.2 19:35:23 10° NNE 19:38:37 23° ENE 19:41:47 10° SE
Lacrosse 5 rocket 4.2 19:37:13 10° WNW 19:40:35 22° NNW 19:43:50 10° NNE
OAO 3 Rocket 4.3 19:37:35 10° WSW 19:41:45 28° S 19:45:57 10° SE
Spot 2 Rocket 4.2 19:37:11 10° SE 19:41:54 40° ENE 19:46:38 10° N
ATLAS 5 CENTAUR R/B 4.3 19:39:45 10° W 19:43:12 20° NW 19:45:11 10° N
Cosmos 1745 Rocket 4.1 19:40:11 10° S 19:46:15 62° E 19:52:25 10° NNE
Resurs 1-3 4.2 19:45:25 10° S 19:49:44 58° W 19:54:05 10° NNW
Cosmos 1125 Rocket 3.8 19:46:35 10° NNW 19:51:50 70° WSW 19:57:04 10° S
Meteor 1-21 Rocket 4.3 19:49:26 10° S 19:55:19 77° E 20:01:16 10° NNE
SPOT 1/Viking Rocket 4.2 19:51:16 10° SE 19:56:03 41° ENE 20:00:53 10° N
VEP-3 4.4 19:57:08 10° SSW 20:00:23 15° SSE 20:03:43 11° SE
Cosmos 2322 Rocket 2.9 19:55:27 10° SW 20:00:58 59° WNW 20:06:32 10° NNE
SL-08 ROCKET BODY 4.4 19:55:48 10° S 20:01:43 82° E 20:07:47 10° N
Alouette 2 Rocket 4.3 19:58:11 10° N 20:01:52 41° ENE 20:06:10 13° SE
SPOT 3 Rocket 4.4 19:57:04 10° S 20:02:05 49° W 20:07:09 10° NNW
NOSS 7 (D) 4.2 20:00:24 10° SW 20:03:15 67° NW 20:05:57 10° NNE
Cosmos 2237 4.2 19:57:54 10° SSW 20:03:38 85° ESE 20:09:24 10° NNE
OAO 2 Rocket 4.4 20:00:58 10° SW 20:05:28 28° S 20:09:32 12° ESE
Cosmos 1328 4.1 20:02:08 10° SSE 20:05:57 48° E 20:09:47 10° NNE
SAR-Lupe-2 4.2 20:07:35 10° NNE 20:10:56 36° E 20:13:37 14° SSE
Cosmos 1455 2.2 20:09:11 10° N 20:13:02 82° W 20:16:46 11° S
Cosmos 1825 Rocket 3.6 20:10:52 10° S 20:15:15 65° E 20:19:41 10° NNE
ATLAS CENTAUR R/B 2.9 20:16:35 10° N 20:19:34 22° NE 20:22:16 11° E
Cosmos 1703 3.1 20:15:59 10° S 20:19:51 82° E 20:23:45 10° N
COSMOS 2428 3.3 20:15:46 10° S 20:20:52 36° ESE 20:26:00 10° NE
Cosmos 1812 Rocket 4.5 20:19:05 10° NNW 20:23:15 46° W 20:27:22 10° SSW
SL-24 R/B - RUBIN 2 4.4 20:17:45 10° SSW 20:23:40 71° ESE 20:30:13 10° NE
Cosmos 2322 3.7 20:19:02 10° SSW 20:24:40 65° ESE 20:30:21 10° NNE
Cosmos 1844 3.8 20:19:20 10° NNW 20:25:09 75° ENE 20:29:32 18° SSE
Delta 2 Rocket 4.3 20:25:12 10° SW 20:27:43 19° S 20:28:10 19° S
Cosmos 1709 Rocket 4.0 20:25:02 10° S 20:31:18 77° E 20:37:40 10° N
NOSS 3-3 (A) 4.0 20:27:41 10° SSW 20:33:14 51° ESE 20:39:24 10° NE
NOSS 3-3 (C) 4.0 20:27:48 10° SSW 20:33:21 50° ESE 20:39:31 10° NE
Terra 2.6 20:31:40 19° SE 20:34:38 39° ENE 20:39:04 10° N
Cosmos 2237 Rocket 3.6 20:33:12 16° ESE 20:34:46 18° E 20:38:32 10° ENE
CARTOSAT-1 3.7 20:32:57 21° SSE 20:35:44 60° ENE 20:40:01 10° N
Atlas Centaur 2 3.6 20:31:04 10° SW 20:35:55 24° S 20:38:47 19° SE
Cosmos 2333 4.1 20:30:51 10° SSW 20:36:27 78° ESE 20:42:11 10° NNE
Cosmos 2219 Rocket 2.3 20:31:27 10° S 20:36:52 54° ESE 20:42:19 10° NNE
Cosmos 2360 Rocket 3.0 20:33:20 10° SW 20:38:51 55° WNW 20:44:26 10° NNE
IGS 5A 3.8 20:35:34 15° S 20:38:56 61° W 20:43:04 10° NNW
Cosmos 1538 Rocket 4.2 20:35:01 13° S 20:39:43 52° ESE 20:44:53 10° NNE
IRIS 3.9 20:40:23 10° WSW 20:43:09 43° S 20:43:18 42° SSE
DELTA 2 R/B (1) 4.3 20:39:28 10° SW 20:44:17 30° SSE 20:49:06 10° E
Cosmos 2333 Rocket 2.2 20:41:00 10° SSW 20:46:38 70° ESE 20:52:20 10° NNE
Resurs 01 Rocket 3.8 20:47:40 10° SW 20:50:58 20° W 20:54:17 10° NW
ATLAS 2AS CENTAUR R/B 4.1 20:45:28 10° NNW 20:52:20 34° NE 20:58:41 10° E
Cosmos 1315 Rocket 3.1 20:48:19 10° N 20:52:22 56° ENE 20:54:13 29° SE
Cosmos-2242 3.8 20:51:37 10° NNW 20:55:48 47° W 20:59:05 16° SSW
Cosmos 773 Rocket 4.2 20:51:24 10° SSW 20:56:42 75° WNW 21:02:01 10° NNE
ERS-1 Rocket 3.0 20:56:51 22° S 21:00:09 76° WSW 21:05:13 10° NNW
Cosmos 2221 3.2 20:56:41 10° N 21:00:50 41° ENE 21:02:30 29° SE
GEOS 3 Rocket 4.4 20:58:31 10° NNE 21:03:48 56° NW 21:09:02 10° WSW
USA 215 3.2 21:00:26 10° NE 21:07:02 88° SE 21:13:35 10° SW
Cosmos 1892 3.7 21:07:02 28° ESE 21:07:27 28° E 21:10:45 10° NNE
Cosmos 2278 Rocket 2.8 21:04:36 10° NNW 21:10:04 47° ENE 21:13:09 24° ESE
ATLAS 5 CENTAUR R/B 3.4 21:07:33 10° WSW 21:11:21 32° NW 21:15:35 10° NNE
Cosmos 1844 Rocket 3.8 21:09:40 10° NW 21:14:42 36° WSW 21:18:16 17° SSW
SPOT 5 3.3 21:13:57 24° S 21:16:54 61° WSW 21:21:42 10° NNW
SL-16 R/B 3.9 21:18:56 15° E 21:19:10 15° E 21:22:14 10° ENE
Lacrosse 5 rocket 4.4 21:19:03 10° NNW 21:21:03 13° N 21:23:00 10° NNE
Cosmos 2154 Rocket 4.3 21:23:03 30° SSE 21:25:50 50° E 21:31:47 10° NNE
Cosmos 2058 3.2 21:25:00 42° SE 21:25:51 49° E 21:29:53 10° NNE
Nadezhda 3 Rocket 4.4 21:20:03 10° N 21:26:14 50° ENE 21:29:11 29° SE
BREEZE M DEB (TANK) 3.5 21:26:32 10° WNW 21:27:39 23° W 21:27:39 23° W
Cosmos 1408 3.6 21:29:06 29° E 21:29:06 29° E 21:32:05 10° NNE
Meteor 2-17 Rocket 4.4 21:27:25 30° S 21:30:34 71° E 21:36:36 10° NNE
In-Cosmos 22 Rocket 4.0 21:29:54 34° S 21:32:11 68° E 21:37:28 10° NNE
Cosmos 2074 Rocket 3.9 21:29:15 25° S 21:33:05 90° SE 21:39:21 10° N
TSX-5 4.0 21:33:08 10° NNW 21:36:39 60° ENE 21:37:36 45° ESE
Cosmos 1076 Rocket 3.6 21:36:08 47° SE 21:37:03 59° E 21:41:17 10° NNE
Cosmos 1680 Rocket 3.7 21:35:42 37° SSE 21:37:29 56° ESE 21:42:42 10° NNE
USA 267 3.4 21:34:05 21° ESE 21:38:39 73° NE 21:45:12 10° NW
Cosmos 2084 3.7 21:42:50 10° NW 21:47:13 57° WSW 21:48:05 47° SSW
Cosmos 2151 3.9 21:47:18 32° E 21:47:34 33° E 21:51:24 10° NNE
Cosmos 1842 Rocket 4.1 21:43:23 10° NNW 21:47:37 51° W 21:49:02 35° SW
Cosmos 923 Rocket 4.0 21:52:20 30° SSW 21:55:01 80° WNW 22:00:20 10° NNE
Cosmos 2327 Rocket 4.4 21:52:14 32° S 21:55:18 89° WNW 22:01:28 10° N
Cosmos 1825 2.6 21:58:09 46° E 21:58:09 46° E 22:01:39 10° NNE
ATLAS CENTAUR R/B 2.1 21:55:11 10° NW 21:58:26 33° WSW 21:58:26 33° WSW
ALOS 2 3.7 21:58:03 28° E 21:59:05 32° ENE 22:02:59 10° N
Cosmos 1980 3.6 21:56:55 29° SSW 21:59:53 88° WNW 22:05:35 10° NNE
Cosmos 1151 Rocket 4.5 21:58:54 10° NNE 22:02:29 25° ENE 22:03:13 23° E
Cosmos 44 4.0 22:05:15 31° E 22:05:15 31° E 22:08:24 10° NE
COSMOS 2428 4.1 21:59:53 10° WSW 22:05:05 37° NW 22:10:21 10° NNE
Cosmos 1869 4.5 22:04:53 10° NNW 22:08:30 33° W 22:09:23 30° WSW
Cosmos 1295 Rocket 4.4 22:06:31 39° S 22:09:00 84° E 22:15:08 10° N
GP-B 3.9 22:06:55 10° NNE 22:11:01 35° E 22:11:23 35° E
NOSS 0 Rocket 4.3 22:07:31 17° SW 22:12:21 63° WNW 22:18:30 10° NNE
Terra 3.5 22:10:34 19° SW 22:12:29 24° W 22:16:20 10° NW
Cosmos 962 Rocket 4.5 22:12:15 41° SSE 22:14:35 74° E 22:20:57 10° NNE
Cosmos 1624 Rocket 4.1 22:10:19 10° NNW 22:15:33 69° ENE 22:16:57 47° SE
NOSS 3-4 (A) 3.8 22:08:59 10° NW 22:16:03 85° NE 22:19:47 34° SE
NOSS 3-4 (C) 3.8 22:09:06 10° NW 22:16:09 85° NE 22:19:55 34° SE
Cosmos 2237 Rocket 2.4 22:14:58 26° SW 22:18:12 69° WNW 22:23:55 10° NNE
Genesis I 3.3 22:18:36 63° WSW 22:19:05 73° NW 22:22:59 10° NNE
Nimbus 7 Rocket 4.5 22:14:50 10° NNE 22:20:43 61° ESE 22:22:21 45° SSE
Cosmos 2344 3.4 22:16:02 24° SSW 22:20:56 80° SE 22:28:52 10° NE
Cosmos 2219 Rocket 4.2 22:16:31 10° WSW 22:21:08 26° NW 22:25:48 10° N
Atlas Centaur 2 4.3 22:19:34 10° WSW 22:21:21 15° SW 22:21:21 15° SW
DELTA 2 R/B (1) 3.6 22:24:44 10° WSW 22:36:22 - E 22:30:03 53° S
Thor Agena Rocket 3.8 22:26:24 10° N 22:31:27 61° WNW 22:33:19 37° SW
Cosmos 2333 Rocket 4.5 22:27:09 10° W 22:31:28 22° NW 22:35:51 10° N
BREEZE-M DEB (TANK) 2.8 22:38:57 10° WNW 22:41:22 36° NW 22:41:22 36° NW
Cosmos 1515 Rocket 4.4 22:38:43 10° N 22:42:46 36° ENE 22:43:15 35° E
Cosmos 1371 Rocket 4.2 22:38:04 10° NNW 22:43:16 61° WSW 22:44:15 51° SSW
ATLAS 2AS CENTAUR R/B 2.7 22:36:30 10° NW 22:43:59 73° WSW 22:46:24 43° SSE
EO 1 Del DPAF 4.2 22:40:59 10° N 22:44:30 38° WNW 22:44:59 36° W
Cosmos 1766 Rocket 3.4 22:44:24 78° S 22:44:42 90° E 22:49:08 10° N
Okean 3 Rocket 3.5 22:47:03 65° SW 22:47:32 74° W 22:51:59 10° N
Gbstr 26 Del rocket 4.2 22:49:28 27° ENE 22:49:28 27° ENE 22:51:34 10° ENE
Cosmos 1328 Rocket 3.4 22:45:54 10° N 22:50:13 75° E 22:50:25 73° ESE
Aureole 2 Rocket 3.8 22:47:23 10° NNW 22:48:59 30° NNW 22:48:59 30° NNW
Cosmos 1606 2.8 22:48:39 10° N 22:52:19 74° NW 22:52:19 74° NW
Cosmos 2218 Rocket 4.0 22:50:54 47° S 22:52:54 81° E 22:59:15 10° N
Cosmos 2278 Rocket 3.4 22:49:10 10° NW 22:53:53 27° WSW 22:54:59 26° WSW
Cosmos 864 Rocket 4.5 22:52:04 48° SSE 22:53:55 76° E 23:00:13 10° N
Cosmos 2297 3.6 22:49:57 10° NNW 22:55:43 89° ENE 22:57:11 52° SSE
Cosmos 2228 Rocket 4.4 22:54:20 10° N 22:58:25 31° ENE 22:59:19 28° E
Cosmos 2366 rocket 4.0 22:56:35 47° S 22:58:34 85° E 23:04:58 10° N
Cosmos 1420 Rocket 3.9 22:54:13 10° NNW 22:59:32 86° ENE 23:00:36 58° SSE
Cosmos 1633 3.6 23:01:11 37° ENE 23:01:11 37° ENE 23:03:58 10° NNE
Lacrosse 5 rocket 3.8 22:58:30 10° NNW 23:01:33 20° NNE 23:04:28 10° ENE
Cosmos 1943 Rocket 2.8 22:56:49 10° NNW 23:02:21 50° ENE 23:04:40 32° ESE
SL-16 R/B 2.2 23:00:46 47° SW 23:02:30 81° WNW 23:08:13 10° NNE
Cosmos 2056 Rocket 4.1 23:02:01 10° NNW 23:07:09 44° WSW 23:07:58 41° SW
Cosmos 1959 Rocket 4.4 23:06:20 47° SSW 23:08:14 80° W 23:14:27 10° N
YAOGAN 11 4.2 23:09:09 61° ESE 23:09:34 65° ENE 23:13:57 10° N
Cosmos 1743 Rocket 3.8 23:12:36 53° E 23:12:39 53° E 23:16:53 10° NNE
Cosmos 1048 Rocket 4.1 23:19:32 55° SE 23:20:17 61° ESE 23:25:29 10° NNE
Cosmos 332 Rocket 3.6 23:16:03 10° NNW 23:20:52 86° ENE 23:21:28 69° SSE
USA 267 3.9 23:21:24 35° SW 23:21:58 35° SW 23:27:54 10° WNW
Meteor 2-3 Rocket 3.7 23:21:02 51° SSW 23:22:28 75° WNW 23:28:12 10° N
Helios 1A 3.0 23:24:53 68° W 23:24:53 68° W 23:28:59 10° NNW
Cosmos 405 3.5 23:26:10 10° N 23:29:08 58° N 23:29:08 58° N
Meteor 1-26 Rocket 4.4 23:27:58 10° NNW 23:33:53 64° W 23:35:20 49° SSW
Cosmos 1340 3.7 23:34:23 36° WNW 23:34:23 36° WNW 23:37:48 10° N
Cosmos 1452 Rocket 3.4 23:29:03 10° NNW 23:34:19 71° WSW 23:35:06 60° SSW
ALOS 2 4.0 23:35:26 25° W 23:35:26 25° W 23:39:05 10° NW
CZ-4C R/B 3.6 23:28:30 10° NNW 23:35:29 53° NE 23:43:29 10° ESE
Meteor 2-6 Rocket 4.4 23:30:54 10° N 23:36:19 60° ENE 23:37:54 43° SE
Cosmos 1408 Rocket 4.2 23:35:56 41° W 23:36:22 43° WNW 23:40:36 10° N
COSMOS 2455 2.8 23:30:17 10° NNW 23:36:23 89° ENE 23:38:24 45° SSE
PSLV R/B 3.5 23:32:15 10° NNE 23:36:28 68° ESE 23:36:34 68° ESE
SL-16 R/B 4.3 23:32:07 10° ESE 23:37:03 25° ENE 23:42:00 10° N
Cosmos 1603 3.9 23:36:25 48° SSE 23:37:28 55° ESE 23:43:02 10° NNE
Cosmos 1151 Rocket 4.2 23:36:16 10° NNW 23:40:01 29° W 23:40:03 29° W
Cosmos 1500 Rocket 3.5 23:44:49 69° WSW 23:45:07 72° W 23:49:31 10° N
Cosmos 1727 Rocket 4.2 23:40:10 10° NNW 23:46:17 60° W 23:48:04 44° SSW
Resurs 1-4 Rocket 3.9 23:43:07 10° NE 23:46:55 20° E 23:48:44 17° ESE
Cosmos 2369 Rocket 2.2 23:41:18 10° NNW 23:46:55 77° ENE 23:48:49 43° SE
ISS -1.4 23:51:00 17° E 23:51:00 17° E 23:51:58 10° ENE
Cosmos 371 Rocket 4.1 23:46:00 10° NW 23:50:24 35° WSW 23:50:25 35° WSW
SeaSat 1 3.6 23:46:32 10° NE 23:50:48 29° ESE 23:51:20 28° ESE
Cosmos 1000 Rocket 4.5 23:46:52 10° N 23:53:15 88° E 23:55:26 44° S
Helios 1B rocket 2.2 23:51:06 10° NNE 23:55:16 90° SW 23:55:23 84° SSW
